sat.trackr.live / text

‹ back to catalog

STARLINK-37455

NORAD 69299 · 2026-119D

PAYLOAD ACTIVE UNKNOWN

§ Identity

Operator
Country
US
Launch date
2026-05-30
Launch site
AFWTR
Launch vehicle
Mass (kg)
RCS (m²)

Purposes: comms

External: N2YO · Heavens-Above · Gunter

§ Orbital elements

Epoch: 2026-09-19T22:30:26.390880Z

Period
93.91 min
Inclination
97.2832°
Eccentricity
0.0000987
Mean motion
15.33429451 rev/d
Perigee alt
464.9 km
Apogee alt
466.3 km
Semi-major
6,843.7 km
B*
4.3190e-4
RAAN
287.6256°
Arg perigee
85.6039°
Mean anomaly
274.5316°
Rev number
1,857

§ Raw data

STARLINK-374551 69299U 26119D   26262.93780545  .00013887  00000+0  43190-3 0  99992 69299  97.2832 287.6256 0000987  85.6039 274.5316 15.33429451 18575

JSON: /api/v1/satellites/69299 · /tle

For live sub-satellite position, see the globe view (requires WebGL).

§ Visibility from observer

Set your observer location to see the next 7 days of passes ≥ 10°. The values pass through the URL so the page stays shareable.

No JS? Fill the form by hand. The geolocation button needs JavaScript.